When you browse on this site, cookies collect data to enhance your experience and personalize the content and advertising you see.
Visit our Privacy Policy to learn more. By continuing to use the site, you agree to this use of cookies and data.
  • In Latvia
  • List of Countries
  • For 7 days
  • Water Temperature
  • Weather Map
  • Weather Widgets
  • user-avatar
    Login

    Hourly Weather Wylezinek

    Today, 23 October, Wednesday

    Time Temperature Precipitation Wind Pressure Humidity
    00:00 +14°C° 0 mm 1 mps 753 mmHg 81%
    01:00 +14°C° 0 mm 1 mps 753 mmHg 82%
    02:00 +14°C° 0 mm 1 mps 753 mmHg 84%
    03:00 +13°C° 0 mm 1 mps 753 mmHg 85%
    04:00 +13°C° 0 mm 1 mps 753 mmHg 87%
    05:00 +13°C° 0 mm 1 mps 753 mmHg 87%
    06:00 +13°C° 0 mm 1 mps 753 mmHg 86%
    07:00 +13°C° 0 mm 1 mps 752 mmHg 86%
    08:00 +14°C° 0 mm 1 mps 752 mmHg 79%
    09:00 +16°C° 0 mm 1 mps 752 mmHg 73%
    10:00 +18°C° 0 mm 1 mps 752 mmHg 66%
    11:00 +19°C° 0 mm 1 mps 752 mmHg 63%
    12:00 +20°C° 0 mm 1 mps 752 mmHg 60%
    13:00 +21°C° 0 mm 1 mps 752 mmHg 57%
    14:00 +19°C° 0 mm 2 mps 751 mmHg 61%
    15:00 +19°C° 0 mm 2 mps 751 mmHg 65%
    16:00 +18°C° 0 mm 2 mps 750 mmHg 69%
    17:00 +17°C° 0 mm 2 mps 750 mmHg 74%
    18:00 +16°C° 0 mm 2 mps 750 mmHg 78%
    19:00 +14°C° 0 mm 3 mps 750 mmHg 83%
    20:00 +14°C° 0 mm 3 mps 750 mmHg 85%
    21:00 +13°C° 0 mm 3 mps 750 mmHg 87%
    22:00 +14°C° 0 mm 2 mps 750 mmHg 89%
    23:00 +13°C° 0 mm 3 mps 749 mmHg 90%

    Tomorrow, 24 October, Thursday

    Time Temperature Precipitation Wind Pressure Humidity
    00:00 +13°C° 0 mm 3 mps 749 mmHg 91%
    01:00 +12°C° 0 mm 3 mps 749 mmHg 92%
    02:00 +12°C° 0 mm 3 mps 748 mmHg 92%
    03:00 +12°C° 0 mm 3 mps 748 mmHg 92%
    04:00 +12°C° 0 mm 3 mps 747 mmHg 92%
    05:00 +11°C° 0 mm 3 mps 747 mmHg 92%
    06:00 +11°C° 0 mm 3 mps 747 mmHg 92%
    07:00 +11°C° 0 mm 3 mps 747 mmHg 91%
    08:00 +13°C° 0 mm 3 mps 747 mmHg 83%
    09:00 +16°C° 0 mm 3 mps 747 mmHg 74%
    10:00 +18°C° 0 mm 3 mps 747 mmHg 65%
    11:00 +19°C° 0 mm 3 mps 746 mmHg 61%
    12:00 +20°C° 0 mm 3 mps 746 mmHg 57%
    13:00 +21°C° 0 mm 3 mps 746 mmHg 53%
    14:00 +21°C° 0 mm 3 mps 745 mmHg 57%
    15:00 +20°C° 0 mm 3 mps 745 mmHg 60%
    16:00 +19°C° 0 mm 2 mps 745 mmHg 64%
    17:00 +18°C° 0 mm 2 mps 745 mmHg 66%
    18:00 +17°C° 0 mm 2 mps 745 mmHg 68%
    19:00 +16°C° 0 mm 2 mps 745 mmHg 70%
    20:00 +16°C° 0 mm 2 mps 745 mmHg 69%
    21:00 +16°C° 0 mm 2 mps 746 mmHg 68%
    22:00 +15°C° 0 mm 2 mps 746 mmHg 66%
    23:00 +15°C° 0 mm 2 mps 746 mmHg 66%

    Day after tomorrow, 25 October, Friday

    Time Temperature Precipitation Wind Pressure Humidity
    00:00 +14°C° 0 mm 3 mps 746 mmHg 65%
    01:00 +14°C° 0 mm 3 mps 747 mmHg 65%
    02:00 +13°C° 0 mm 3 mps 747 mmHg 68%
    03:00 +13°C° 0 mm 3 mps 747 mmHg 70%
    04:00 +12°C° 0 mm 3 mps 747 mmHg 73%
    05:00 +12°C° 0 mm 3 mps 748 mmHg 78%
    06:00 +12°C° 0 mm 3 mps 748 mmHg 84%
    07:00 +11°C° 0 mm 3 mps 749 mmHg 89%
    08:00 +13°C° 0 mm 3 mps 749 mmHg 85%
    09:00 +14°C° 0 mm 4 mps 750 mmHg 81%
    10:00 +17°C° 0 mm 4 mps 750 mmHg 76%
    11:00 +17°C° 0 mm 4 mps 751 mmHg 72%
    12:00 +18°C° 0 mm 4 mps 751 mmHg 67%
    13:00 +19°C° 0 mm 4 mps 751 mmHg 62%
    14:00 +19°C° 0 mm 3 mps 751 mmHg 64%
    15:00 +18°C° 0 mm 3 mps 752 mmHg 67%
    16:00 +17°C° 0 mm 2 mps 752 mmHg 70%
    17:00 +16°C° 0 mm 2 mps 752 mmHg 73%
    18:00 +15°C° 0 mm 2 mps 752 mmHg 76%
    19:00 +14°C° 0 mm 1 mps 753 mmHg 79%
    20:00 +14°C° 0 mm 1 mps 753 mmHg 81%
    21:00 +14°C° 0 mm 1 mps 753 mmHg 82%
    22:00 +12°C° 0 mm 0 mps 753 mmHg 84%
    23:00 +13°C° 0 mm 1 mps 753 mmHg 85%

    26 October, Saturday

    Time Temperature Precipitation Wind Pressure Humidity
    00:00 +13°C° 0 mm 1 mps 753 mmHg 85%
    01:00 +13°C° 0 mm 1 mps 752 mmHg 86%
    02:00 +12°C° 0 mm 2 mps 752 mmHg 87%
    03:00 +12°C° 0 mm 2 mps 752 mmHg 88%
    04:00 +12°C° 0 mm 2 mps 751 mmHg 89%
    05:00 +11°C° 0 mm 3 mps 751 mmHg 89%
    06:00 +11°C° 0 mm 3 mps 751 mmHg 89%
    07:00 +10°C° 0 mm 3 mps 750 mmHg 90%
    08:00 +12°C° 0 mm 4 mps 750 mmHg 82%
    09:00 +14°C° 0 mm 4 mps 750 mmHg 75%
    10:00 +16°C° 0 mm 5 mps 750 mmHg 68%
    11:00 +17°C° 0 mm 5 mps 749 mmHg 63%
    12:00 +19°C° 0 mm 5 mps 749 mmHg 57%
    13:00 +21°C° 0 mm 6 mps 748 mmHg 51%
    14:00 +20°C° 0 mm 5 mps 748 mmHg 55%
    15:00 +19°C° 0 mm 4 mps 748 mmHg 60%
    16:00 +18°C° 0 mm 4 mps 747 mmHg 64%
    17:00 +17°C° 0 mm 4 mps 747 mmHg 68%
    18:00 +15°C° 0 mm 4 mps 747 mmHg 72%
    19:00 +14°C° 0 mm 4 mps 747 mmHg 76%
    20:00 +14°C° 0 mm 4 mps 747 mmHg 78%
    21:00 +14°C° 0 mm 4 mps 747 mmHg 80%
    22:00 +14°C° 0 mm 4 mps 747 mmHg 82%
    23:00 +13°C° 0 mm 4 mps 747 mmHg 83%

    27 October, Sunday

    Time Temperature Precipitation Wind Pressure Humidity
    00:00 +13°C° 0 mm 4 mps 747 mmHg 85%
    01:00 +13°C° 0 mm 4 mps 747 mmHg 86%
    02:00 +12°C° 0 mm 5 mps 747 mmHg 86%
    03:00 +12°C° 0 mm 5 mps 747 mmHg 87%
    04:00 +12°C° 0 mm 5 mps 747 mmHg 87%
    05:00 +12°C° 0 mm 5 mps 747 mmHg 84%
    06:00 +12°C° 0 mm 5 mps 747 mmHg 81%
    07:00 +12°C° 0 mm 5 mps 747 mmHg 78%
    08:00 +13°C° 0 mm 6 mps 748 mmHg 77%
    09:00 +13°C° 0 mm 6 mps 748 mmHg 75%
    10:00 +12°C° 0 mm 7 mps 748 mmHg 74%
    11:00 +11°C° 0 mm 7 mps 749 mmHg 67%
    12:00 +10°C° 0 mm 7 mps 749 mmHg 60%
    13:00 +9°C° 0 mm 7 mps 749 mmHg 53%
    14:00 +9°C° 0 mm 6 mps 749 mmHg 52%
    15:00 +9°C° 0 mm 5 mps 749 mmHg 51%
    16:00 +8°C° 0 mm 4 mps 750 mmHg 50%
    17:00 +8°C° 0 mm 4 mps 750 mmHg 53%
    18:00 +7°C° 0 mm 4 mps 750 mmHg 57%
    19:00 +6°C° 0 mm 4 mps 750 mmHg 60%
    20:00 +6°C° 0 mm 4 mps 751 mmHg 61%
    21:00 +6°C° 0 mm 4 mps 751 mmHg 63%
    22:00 +6°C° 0 mm 4 mps 751 mmHg 65%
    23:00 +5°C° 0 mm 4 mps 751 mmHg 66%

    28 October, Monday

    Time Temperature Precipitation Wind Pressure Humidity
    00:00 +5°C° 0 mm 4 mps 750 mmHg 67%
    01:00 +5°C° 0 mm 5 mps 750 mmHg 68%
    02:00 +5°C° 0 mm 5 mps 750 mmHg 70%
    03:00 +5°C° 0 mm 5 mps 750 mmHg 71%
    04:00 +4°C° 0 mm 6 mps 750 mmHg 73%
    05:00 +5°C° 0 mm 5 mps 750 mmHg 75%
    06:00 +3°C° 0 mm 5 mps 750 mmHg 78%
    07:00 +3°C° 0 mm 5 mps 750 mmHg 80%
    08:00 +4°C° 0 mm 6 mps 750 mmHg 74%
    09:00 +5°C° 0 mm 7 mps 750 mmHg 67%
    10:00 +6°C° 0 mm 7 mps 750 mmHg 60%
    11:00 +8°C° 0 mm 7 mps 750 mmHg 57%
    12:00 +8°C° 0 mm 7 mps 750 mmHg 54%
    13:00 +8°C° 0 mm 7 mps 750 mmHg 51%
    14:00 +8°C° 0 mm 6 mps 750 mmHg 53%
    15:00 +7°C° 0 mm 6 mps 750 mmHg 54%
    16:00 +7°C° 0 mm 6 mps 750 mmHg 56%
    17:00 +7°C° 0 mm 6 mps 750 mmHg 57%
    18:00 +7°C° 0 mm 6 mps 751 mmHg 58%
    19:00 +5°C° 0 mm 6 mps 751 mmHg 59%
    20:00 +6°C° 0 mm 5 mps 751 mmHg 62%
    21:00 +5°C° 0 mm 5 mps 752 mmHg 66%
    22:00 +4°C° 0 mm 4 mps 752 mmHg 69%
    23:00 +3°C° 0 mm 4 mps 752 mmHg 71%

    29 October, Tuesday

    Time Temperature Precipitation Wind Pressure Humidity
    00:00 +1°C° 0 mm 4 mps 752 mmHg 72%
    01:00 +1°C° 0 mm 3 mps 752 mmHg 74%
    02:00 0°C° 0 mm 4 mps 753 mmHg 72%
    03:00 0°C° 0 mm 4 mps 753 mmHg 70%
    04:00 -1°C° 0 mm 4 mps 753 mmHg 68%
    05:00 -1°C° 0 mm 4 mps 754 mmHg 69%
    06:00 -1°C° 0 mm 4 mps 754 mmHg 69%
    07:00 -1°C° 0 mm 4 mps 755 mmHg 70%
    08:00 0°C° 0 mm 5 mps 755 mmHg 63%
    09:00 +1°C° 0 mm 5 mps 756 mmHg 56%
    10:00 +3°C° 0 mm 6 mps 756 mmHg 49%
    11:00 +3°C° 0 mm 6 mps 756 mmHg 48%
    12:00 +3°C° 0 mm 6 mps 757 mmHg 47%
    13:00 +4°C° 0 mm 6 mps 757 mmHg 45%
    14:00 +3°C° 0 mm 5 mps 757 mmHg 50%
    15:00 +3°C° 0 mm 5 mps 757 mmHg 54%
    16:00 +3°C° 0 mm 4 mps 757 mmHg 58%
    17:00 +3°C° 0 mm 4 mps 758 mmHg 63%
    18:00 +2°C° 0 mm 3 mps 759 mmHg 68%
    19:00 +1°C° 0 mm 3 mps 759 mmHg 74%
    20:00 +1°C° 0 mm 3 mps 760 mmHg 72%
    21:00 0°C° 0 mm 3 mps 760 mmHg 71%
    22:00 0°C° 0 mm 3 mps 761 mmHg 70%
    23:00 0°C° 0 mm 3 mps 761 mmHg 69%
    Show more